Location: Remedello Sotto
(45.2500°N, 10.3667°E)
Time: 10:26:01
(UTC+00:00)

Cosmos 676 Rocket - Pass Details

Date: 03 February 2023
Orbit: 754 x 782 km, 74.0° (Epoch: 30 March)

Event Time Altitude Azimuth Distance (km) Brightness Sun altitude
Rises 17:12:11 0° 184° (S) 3,247 7.5 -8.1°
Reaches altitude 10° 17:14:37 10° 179° (S) 2,320 6.7 -8.6°
Maximum altitude 17:19:42 51° 105° (ESE) 975 4.2 -9.4°
Drops below altitude 10° 17:24:46 10° 31° (NNE) 2,319 6.1 -10.3°
Sets 17:27:12 0° 26° (NNE) 3,245 6.9 -10.7°
